Regional Weather Roundup
Issued by NWS

Home | Current Version | Previous Version | Text Only | Print | Product List | Glossary Off
Versions: 1 2 3 4 5 6 7 8 9 10 11 12 13 14 15 16 17 18 19 20 21 22 23 24 25 26 27 28 29 30 31 32 33 34 35 36 37 38 39 40 41 42 43 44 45 46

000
ASUS45 KSLC 260910
RWRUT

UTAH REGIONAL WEATHER ROUNDUP
NATIONAL WEATHER SERVICE SALT LAKE CITY UT
200 AM MST FRI DEC 26 2014

UTZ001>011-023>025-261000-

NORTHERN UTAH

CITY           SKY/WX    TMP DP  RH WIND       PRES   REMARKS
BRIGHAM CITY   CLOUDY    28  18  66 CALM      29.89R
HILL AFB       MOCLDY    26  15  64 S2        29.84R
LOGAN          CLOUDY    19  16  88 CALM      29.90R
OGDEN          CLOUDY    26  17  68 N12       29.84R WCI  16
PROVO AIRPORT  CLOUDY    27  21  80 NW14      29.82R WCI  15
SALT LAKE CITY CLOUDY    26  23  88 N3        29.85R
VERNAL         CLOUDY    23  12  62 E7        29.74R WCI  15
WENDOVER       MOCLDY    28  14  54 NW21G26   29.92S WCI  15
HEBER CITY     CLOUDY    23  14  68 NE7       29.77R WCI  15
WEST JORDAN    CLOUDY    25  25 100 NW8       29.84R WCI  16

$$

UTZ012>022-026-027-261000-

SOUTHERN/CENTRAL UTAH

CITY           SKY/WX    TMP DP  RH WIND       PRES   REMARKS
BLANDING       PTCLDY    19  16  90 NE3       29.76R
BRYCE CANYON   CLOUDY    11   7  84 N9        29.71R WCI  -2
CEDAR CITY     CLOUDY    22  18  85 N13       29.81R WCI  10
DELTA          CLOUDY    25  21  84 NW15      29.84R WCI  13
MILFORD        LGT SNOW  24  21  88 N9        29.84R FOG     WCI  14
MOAB/CYNLANDS  LGT SNOW  27  26  96 CALM      29.72R FOG
PRICE          CLOUDY    25  12  58 N7        29.69R WCI  17
ST GEORGE      PTSUNNY   32  18  55 S6        29.89R WCI  26
KANAB          CLOUDY    21  21 100 CALM      29.84R

$$

REGIONAL REPORTS     COLORADO/ARIZONA

CITY           SKY/WX    TMP DP  RH WIND       PRES   REMARKS
CRAIG, CO      CLOUDY    20  16  84 W8        29.70R WCI  10
GRAND JUNCTION FLURRIES  25  25 100 W5        29.72R WCI  19
RIFLE          CLOUDY    26  22  84 CALM      29.69S
MONTROSE       CLOUDY    26  23  88 N3        29.71R
CORTEZ         CLOUDY    17  14  88 E3        29.69R
PAGE, AZ       CLOUDY    32  13  45 CALM      29.75R
GRAND CANYON   MOCLDY    18  16  92 CALM      29.74R
KINGMAN        CLEAR     30  14  51 CALM      29.87R
FLAGSTAFF      MOCLDY    14  10  84 W3        29.71S

$$

REGIONAL REPORTS    NEVADA/IDAHO/WYOMING

CITY           SKY/WX    TMP DP  RH WIND       PRES   REMARKS
LAS VEGAS, NV  CLEAR     44  10  25 NW16      29.89S
ELY            CLOUDY    17  12  80 NW8       29.89S WCI   7
ELKO           CLOUDY    25  14  63 N8        30.00R WCI  16
POCATELLO, ID  CLEAR      8   5  87 N6        29.94R WCI  -2
BURLEY         CLEAR     23  17  78 W14G22    29.95R WCI  11
EVANSTON, WY   CLOUDY    15  10  80 NE6       29.77R WCI   6
ROCK SPRINGS   CLOUDY    13   8  81 NE20      29.77R WCI  -5

$$



USA.gov is the U.S. government's official web portal to all federal, state and local government web resources and services.